EW9034 Weather Reports


Display with metric or nautical units.
time (UTC)temp
F
wind
direction
speed
MPH
gust
MPH
rain 1hr
in
rain 24hr
in
rain mn
in
humidity
%
barometer
mb
20260831144600 58 262 8.0 12.0 0.00 0.04 0.00 76 1011.4
20260831141547 56 252 9.0 13.0 0.00 0.04 0.00 82 1011.2
20260831140134 53 238 6.0 10.0 0.00 0.04 0.00 86 1011.0
20260831134535 52 240 4.0 7.0 0.00 0.04 0.00 84 1010.7
20260831133121 53 243 3.0 7.0 0.00 0.04 0.00 83 1010.6
20260831131659 53 246 7.0 9.0 0.00 0.04 0.00 84 1010.4
20260831130036 52 261 6.0 8.0 0.00 0.04 0.00 83 1010.1
20260831124535 52 270 5.0 10.0 0.00 0.04 0.00 83 1010.0
20260831123133 52 269 4.0 10.0 0.00 0.04 0.00 82 1009.9
20260831121530 52 266 7.0 14.0 0.00 0.04 0.00 82 1009.6
20260831120030 52 283 5.0 9.0 0.00 0.04 0.00 81 1009.3
20260831114526 53 265 5.0 14.0 0.00 0.04 0.00 80 1008.9
20260831113024 53 298 8.0 15.0 0.00 0.04 0.00 80 1008.6
20260831111523 53 275 6.0 14.0 0.00 0.04 0.00 79 1008.4
20260831110020 53 270 9.0 14.0 0.00 0.04 0.00 78 1008.3
20260831104522 54 288 10.0 18.0 0.00 0.04 0.00 76 1008.1
20260831103017 55 276 12.0 18.0 0.00 0.04 0.00 75 1007.9
20260831101515 55 260 9.0 16.0 0.00 0.04 0.00 75 1007.8
20260831100013 55 265 8.0 14.0 0.00 0.04 0.00 75 1007.6
20260831094513 56 269 11.0 19.0 0.00 0.04 0.00 75 1007.1
20260831093012 56 281 11.0 17.0 0.00 0.04 0.00 75 1007.5
20260831091508 56 286 12.0 20.0 0.00 0.04 0.00 77 1007.1
20260831090006 55 253 10.0 16.0 0.00 0.04 0.00 82 1006.7
20260831084504 55 261 10.0 16.0 0.00 0.04 0.00 84 1006.7
20260831083004 55 270 8.0 16.0 0.00 0.04 0.00 83 1006.7
20260831081503 55 290 10.0 15.0 0.00 0.04 0.00 82 1006.7
20260831080002 55 263 10.0 16.0 0.00 0.04 0.00 83 1006.8
20260831074601 55 267 8.0 16.0 0.00 0.04 0.00 84 1006.9
20260831073100 54 305 11.0 19.0 0.00 0.04 0.00 85 1006.7
20260831071614 54 271 10.0 19.0 0.00 0.04 0.00 85 1006.6
20260831070105 54 281 12.0 17.0 0.00 0.04 0.00 86 1006.5
20260831064554 53 271 7.0 17.0 0.00 0.04 0.00 88 1006.7
20260831063052 53 274 11.0 18.0 0.00 0.04 0.00 91 1006.8
20260831061546 52 269 8.0 13.0 0.00 0.04 0.00 92 1006.8
20260831060042 50 232 3.0 6.0 0.00 0.04 0.00 91 1006.9
20260831054545 50 238 3.0 8.0 0.00 0.04 0.04 91 1006.9
20260831053053 50 242 4.0 8.0 0.00 0.04 0.04 92 1007.0
20260831051543 49 240 4.0 9.0 0.00 0.04 0.04 92 1006.8
20260831050043 48 233 4.0 7.0 0.00 0.04 0.04 92 1006.8
20260831044537 48 232 3.0 6.0 0.00 0.04 0.04 91 1006.8
20260831043032 49 232 3.0 5.0 0.00 0.04 0.04 91 1006.7
20260831041531 50 230 3.0 5.0 0.00 0.04 0.04 90 1006.6
20260831040030 51 184 2.0 4.0 0.00 0.04 0.04 90 1006.5
20260831034529 51 182 0.0 0.0 0.00 0.04 0.04 90 1006.3
20260831033054 52 182 1.0 4.0 0.00 0.04 0.04 90 1006.2
20260831031528 52 182 2.0 5.0 0.00 0.04 0.04 90 1006.1
20260831030027 52 182 2.0 6.0 0.00 0.04 0.04 90 1005.8
20260831024529 52 187 3.0 6.0 0.00 0.04 0.04 90 1005.8
20260831023027 52 189 2.0 4.0 0.04 0.04 0.04 89 1005.8
20260831021525 52 190 3.0 5.0 0.04 0.04 0.04 88 1005.7
20260831020025 52 200 3.0 5.0 0.04 0.04 0.04 87 1005.8
20260831014524 53 236 3.0 17.0 0.04 0.05 0.04 82 1006.0
20260831013024 55 216 5.0 11.0 0.00 0.01 0.00 77 1006.3
20260831011522 55 240 7.0 15.0 0.00 0.01 0.00 74 1006.1
20260831010023 59 273 12.0 18.0 0.00 0.01 0.00 61 1006.2
20260831004526 59 254 6.0 10.0 0.00 0.01 0.00 60 1005.9
20260831003031 61 245 10.0 18.0 0.00 0.01 0.00 57 1005.7
20260831001520 61 287 12.0 19.0 0.00 0.01 0.00 57 1005.6
20260831000021 61 251 10.0 21.0 0.00 0.01 0.00 58 1005.6
20260830234533 61 265 10.0 17.0 0.00 0.01 0.00 56 1005.4
20260830233119 63 211 7.0 12.0 0.00 0.01 0.00 51 1005.1
20260830231519 65 152 3.0 7.0 0.00 0.01 0.00 52 1005.1
20260830230020 65 141 5.0 10.0 0.00 0.01 0.00 54 1005.0
20260830224517 66 170 2.0 6.0 0.00 0.01 0.00 54 1005.3
20260830223016 61 159 2.0 7.0 0.00 0.01 0.00 65 1005.6
20260830221530 60 163 6.0 12.0 0.00 0.01 0.00 59 1005.8
20260830220016 64 247 14.0 21.0 0.00 0.01 0.00 47 1005.7
20260830214513 65 261 11.0 19.0 0.00 0.01 0.00 46 1005.5
20260830213014 67 265 10.0 17.0 0.00 0.01 0.00 39 1005.3
20260830211515 67 268 9.0 16.0 0.00 0.01 0.00 37 1005.1
20260830210012 68 224 8.0 19.0 0.00 0.01 0.00 40 1005.1
20260830204512 68 225 9.0 16.0 0.00 0.01 0.00 39 1005.2
20260830203010 70 229 14.0 21.0 0.00 0.01 0.00 37 1005.1
20260830201508 67 248 12.0 17.0 0.00 0.01 0.00 39 1005.2
20260830200005 68 270 10.0 17.0 0.00 0.01 0.00 38 1005.4
20260830194504 68 242 10.0 19.0 0.00 0.01 0.00 40 1005.4
20260830193002 67 199 5.0 10.0 0.00 0.01 0.00 41 1005.6
20260830191659 65 216 1.0 8.0 0.00 0.01 0.00 41 1005.8
20260830190109 66 302 5.0 10.0 0.00 0.01 0.00 41 1005.9
20260830184600 65 249 6.0 12.0 0.00 0.01 0.00 46 1006.0
20260830183053 65 234 4.0 9.0 0.00 0.01 0.00 46 1006.0
20260830181553 65 234 6.0 12.0 0.00 0.01 0.00 45 1006.1
20260830180055 65 257 8.0 14.0 0.00 0.01 0.00 45 1006.2
20260830174557 65 265 8.0 15.0 0.00 0.01 0.00 46 1006.3
20260830173109 64 237 6.0 11.0 0.00 0.01 0.00 48 1006.3
20260830171553 62 211 6.0 14.0 0.00 0.01 0.00 49 1006.5
20260830170048 64 207 10.0 15.0 0.00 0.01 0.00 47 1006.3
20260830164545 62 232 8.0 18.0 0.00 0.01 0.00 50 1006.6
20260830163041 60 221 7.0 12.0 0.00 0.01 0.00 58 1006.8
20260830161541 60 213 6.0 16.0 0.00 0.01 0.00 58 1006.7
20260830160039 60 202 6.0 10.0 0.00 0.01 0.00 58 1007.0
20260830154535 59 191 3.0 10.0 0.00 0.01 0.00 61 1006.9
20260830153035 59 178 3.0 8.0 0.00 0.01 0.00 62 1006.9
20260830151527 58 184 5.0 11.0 0.00 0.01 0.00 64 1007.1
20260830150023 56 202 3.0 8.0 0.00 0.01 0.00 74 1007.3